Location: General Nathan Twining Observatory
(34.5931°N, 106.8201°W)
Time: 05:03:01
(UTC-07:00)

ADEOS II - Visible Passes

Search period start: 21 November 2014 00:00
Search period end: 01 December 2014 00:00
Orbit: 801 x 803 km, 98.3° (Epoch: 20 November)

Date Brightness Start Highest point End Pass type
(mag) Time Alt. Az. Time Alt. Az. Time Alt. Az.
21 Nov 3.2 05:35:42 10° NNE 05:40:46 47° E 05:45:48 10° S visible
21 Nov 5.1 18:33:33 10° SW 18:36:46 16° W 18:39:59 10° NW visible
22 Nov 4.4 05:10:15 10° NE 05:14:37 26° E 05:18:57 10° SSE visible
22 Nov 4.2 18:05:59 10° SSW 18:10:32 30° W 18:15:06 10° NW visible
23 Nov 5.2 04:45:37 10° ENE 04:48:21 14° E 04:51:05 10° SE visible
23 Nov 3.0 17:39:16 10° S 17:44:23 54° W 17:49:33 10° NNW visible
24 Nov 2.3 05:57:09 10° NNE 06:02:25 80° ESE 06:07:40 10° S visible
25 Nov 3.4 05:31:20 10° NNE 05:36:20 43° E 05:41:18 10° S visible
25 Nov 5.0 18:28:50 10° SW 18:32:18 18° W 18:35:48 10° NW visible
26 Nov 4.5 05:05:58 10° NE 05:10:10 24° E 05:14:20 10° SSE visible
26 Nov 4.0 18:01:26 10° SSW 18:06:05 32° W 18:10:47 10° NW visible
27 Nov 5.2 04:41:34 10° ENE 04:43:53 13° E 04:46:12 10° ESE visible
27 Nov 2.1 06:18:49 10° N 06:24:00 62° WNW 06:29:10 10° SSW visible
27 Nov 2.8 17:34:47 10° S 17:39:57 59° W 17:45:09 10° NNW visible
28 Nov 2.4 05:52:44 10° NNE 05:58:00 73° ESE 06:03:13 10° S visible
29 Nov 3.5 05:26:58 10° NNE 05:31:54 40° E 05:36:47 10° SSE visible
29 Nov 4.9 18:24:07 10° SW 18:27:50 20° W 18:31:35 10° NW visible
30 Nov 4.6 05:01:41 10° NE 05:05:42 22° E 05:09:42 10° SE visible
30 Nov 3.9 17:56:52 10° SSW 18:01:38 35° W 18:06:26 10° NNW visible
